Location: Newark
(34.0131°N, 4.3314°W)
Time: 02:40:56
(UTC+00:00)

Explorer 7 - Pass Details

Date: 17 October 2019
Orbit: 485 x 680 km, 50.3° (Epoch: 18 November)

Event Time Altitude Azimuth Distance (km) Brightness Sun altitude
Rises 13:01:27 0° 260° (W) 2,541 10.5 44.5°
Reaches altitude 10° 13:03:57 10° 276° (W) 1,660 9.5 44.3°
Maximum altitude 13:06:57 23° 330° (NNW) 1,084 8.3 44.1°
Drops below altitude 10° 13:10:00 10° 24° (NNE) 1,684 9.0 43.9°
Sets 13:12:34 0° 39° (NE) 2,588 9.8 43.7°
